K7JKM Weather Reports


time (UTC)temp
F
wind
direction
speed
knots
gust
knots
rain 1hr
in
rain 24hr
in
rain mn
in
humidity
%
barometer
mb
20260904211507 64 228 0.0 3.5 0.00 0.36 0.13 65 1013.9
20260904210013 65 118 0.0 7.0 0.00 0.36 0.13 59 1013.5
20260904204503 66 126 0.0 1.7 0.00 0.37 0.13 60 1013.2
20260904203023 65 124 0.0 2.6 0.00 0.37 0.13 64 1013.2
20260904201520 64 122 0.0 3.5 0.00 0.39 0.13 68 1013.3
20260904200018 63 19 0.0 0.0 0.01 0.39 0.13 67 1013.3
20260904194512 62 132 0.0 1.7 0.01 0.40 0.13 69 1013.3
20260904193009 61 124 0.0 0.0 0.01 0.40 0.13 73 1013.5
20260904191508 60 123 0.0 1.7 0.01 0.40 0.13 69 1013.6
20260904190005 62 132 0.0 0.0 0.00 0.39 0.12 70 1013.7
20260904184530 62 133 0.0 0.9 0.00 0.39 0.12 72 1013.5
20260904183029 62 101 0.0 0.9 0.00 0.39 0.12 70 1013.4
20260904181525 61 332 0.0 0.0 0.00 0.39 0.12 70 1013.3
20260904180020 60 332 0.0 0.0 0.00 0.39 0.12 73 1013.2
20260904174514 59 333 0.0 0.9 0.00 0.39 0.12 75 1013.2
20260904173014 59 296 0.0 0.9 0.00 0.39 0.12 74 1013.1
20260904171512 58 303 0.0 0.0 0.00 0.43 0.12 76 1012.9
20260904170032 58 347 0.0 0.0 0.00 0.50 0.12 75 1012.9
20260904164532 57 284 0.0 0.0 0.00 0.52 0.12 78 1012.8
20260904163031 57 284 0.0 0.0 0.00 0.52 0.12 80 1012.8
20260904161533 56 284 0.0 0.0 0.00 0.52 0.12 80 1012.8
20260904160024 56 283 0.0 0.0 0.01 0.52 0.12 80 1012.7
20260904154518 56 283 0.0 0.0 0.01 0.52 0.12 81 1012.6
20260904153021 55 284 0.0 0.0 0.01 0.52 0.12 81 1012.6
20260904151507 54 297 0.0 0.0 0.01 0.52 0.12 81 1012.5
20260904150016 54 289 0.0 0.0 0.00 0.51 0.11 81 1012.5
20260904144502 54 283 0.0 0.0 0.00 0.51 0.11 81 1012.2
20260904143009 54 282 0.0 0.0 0.00 0.51 0.11 81 1012.2
20260904141507 54 282 0.0 0.0 0.00 0.52 0.11 81 1011.8
20260904140011 53 122 0.0 0.0 0.00 0.52 0.11 81 1011.7
20260904134510 54 122 0.0 0.0 0.00 0.55 0.11 80 1011.4
20260904133015 54 123 0.0 0.0 0.00 0.57 0.11 81 1011.2
20260904131510 53 122 0.0 0.0 0.00 0.58 0.11 80 1011.1
20260904130012 53 123 0.0 0.0 0.00 0.60 0.11 80 1011.1
20260904124513 54 122 0.0 0.0 0.00 0.60 0.11 80 1010.9
20260904123015 54 123 0.0 0.0 0.00 0.60 0.11 80 1010.9
20260904121515 54 123 0.0 0.0 0.00 0.60 0.11 80 1010.9
20260904120016 54 122 0.0 0.0 0.00 0.60 0.11 80 1010.8
20260904114516 53 123 0.0 0.0 0.00 0.60 0.11 80 1010.7
20260904113020 53 123 0.0 0.0 0.01 0.60 0.11 80 1010.6
20260904111518 53 123 0.0 0.0 0.02 0.60 0.11 80 1010.4
20260904110017 53 122 0.0 0.0 0.03 0.60 0.11 80 1010.3
20260904104520 53 132 0.0 0.0 0.03 0.60 0.11 80 1010.3
20260904103018 53 132 0.0 0.0 0.02 0.58 0.10 80 1010.3
20260904101520 53 132 0.0 0.0 0.02 0.58 0.09 80 1010.4
20260904100024 53 132 0.0 0.0 0.02 0.57 0.08 80 1010.4
20260904094523 54 132 0.0 0.0 0.04 0.57 0.08 80 1010.2
20260904093025 54 132 0.0 0.0 0.07 0.57 0.08 80 1010.2
20260904091524 54 132 0.0 0.0 0.07 0.56 0.07 80 1010.4
20260904090023 54 132 0.0 0.0 0.06 0.55 0.06 80 1010.4
20260904084527 54 132 0.0 0.0 0.04 0.52 0.04 80 1010.3
20260904083006 54 132 0.0 0.0 0.01 0.50 0.01 80 1010.4
20260904081506 54 132 0.0 0.0 0.00 0.49 0.00 80 1010.4
20260904080004 54 132 0.0 0.0 0.00 0.49 0.00 79 1010.3
20260904074510 54 132 0.0 0.0 0.01 0.49 0.00 79 1010.2
20260904073007 54 132 0.0 0.0 0.01 0.49 0.00 79 1010.2
20260904071502 54 132 0.0 0.0 0.01 0.49 0.00 79 1010.3
20260904070012 54 132 0.0 0.0 0.01 0.49 0.00 79 1010.1
20260904064515 54 132 0.0 0.0 0.00 0.49 0.48 79 1010.1
20260904063008 54 132 0.0 0.0 0.00 0.50 0.48 78 1010.2
20260904061505 54 132 0.0 0.0 0.00 0.50 0.48 78 1010.2
20260904060009 54 132 0.0 0.0 0.00 0.50 0.48 78 1010.1
20260904054510 54 132 0.0 0.0 0.00 0.52 0.48 78 1010.2
20260904053006 54 132 0.0 0.0 0.00 0.57 0.48 77 1010.2
20260904051517 54 132 0.0 0.0 0.00 0.58 0.48 76 1010.2
20260904050013 54 132 0.0 0.0 0.00 0.61 0.48 76 1010.3
20260904044510 54 132 0.0 0.0 0.00 0.61 0.48 74 1010.3
20260904043007 54 132 0.0 0.0 0.01 0.61 0.48 73 1010.2
20260904041507 54 132 0.0 0.0 0.02 0.61 0.48 72 1010.1
20260904040003 55 134 0.0 0.0 0.03 0.61 0.48 71 1010.2
20260904034504 55 120 0.0 2.6 0.04 0.61 0.48 71 1010.1
20260904033027 55 113 0.0 1.7 0.03 0.60 0.47 71 1010.0
20260904031523 55 108 0.0 3.5 0.03 0.58 0.46 71 1010.0
20260904030018 56 111 0.0 1.7 0.02 0.58 0.45 70 1010.1
20260904024514 56 120 0.0 1.7 0.02 0.57 0.44 70 1010.0
20260904023011 56 117 0.0 1.7 0.02 0.57 0.44 69 1009.9
20260904021512 56 126 0.0 0.0 0.02 0.56 0.43 69 1009.9
20260904020004 56 152 0.0 0.9 0.02 0.56 0.43 68 1009.9
20260904014540 57 139 0.0 1.7 0.01 0.55 0.42 66 1009.8
20260904013027 57 137 0.0 5.2 0.01 0.55 0.42 66 1009.8
20260904011522 59 143 0.0 3.5 0.00 0.54 0.41 67 1009.8
20260904010016 59 127 0.0 2.6 0.00 0.54 0.41 67 1009.7
20260904004513 59 120 0.9 3.5 0.00 0.54 0.41 67 1009.8
20260904003012 58 120 0.0 2.6 0.00 0.55 0.41 67 1009.8
20260904001507 59 128 0.0 1.7 0.00 0.55 0.41 68 1010.0
20260904000032 59 121 0.0 1.7 0.02 0.55 0.41 66 1010.1
20260903234527 58 117 0.0 2.6 0.04 0.56 0.41 67 1009.9
20260903233027 58 95 0.0 2.6 0.04 0.56 0.41 68 1010.0
20260903231520 57 125 0.0 0.9 0.04 0.56 0.41 68 1010.2
20260903230019 57 112 0.0 0.0 0.02 0.54 0.39 68 1010.3
20260903224517 57 96 0.0 0.0 0.02 0.60 0.37 68 1010.4
20260903223011 57 172 0.0 1.7 0.07 0.65 0.37 68 1010.4
20260903221531 56 122 0.0 0.0 0.11 0.68 0.37 71 1010.3
20260903220040 54 122 0.0 0.9 0.11 0.71 0.37 71 1010.4
20260903214536 54 94 0.0 2.6 0.10 0.70 0.35 69 1010.8
20260903213003 55 151 0.0 1.7 0.05 0.66 0.30 68 1010.8